,,Stat1,,Stat2,,Stat3,,Stat4,,Wind1,,Wind1,
time,status,PR1M_SUM,status,RH1M_AVG,status,SR1M_AVG,status,TA1M_AVG,status,W1dAve1m,status,W1sAve1m,
1999-10-12, 00:01:00,VALID,0,VALID,100,VALID,-0.0849042,VALID,19.4571,VALID,95,VALID,1.34827,
1999-10-12, 00:02:00,VALID,0,VALID,100,VALID,-0.0679233,VALID,19.4738,VALID,107,VALID,0.76222,
1999-10-12, 00:03:00,VALID,0,VALID,100,VALID,-0.101885,VALID,19.4837,VALID,121,VALID,0.283537,
1999-10-12, 00:04:00,VALID,0,VALID,100,VALID,-0.0679233,VALID,19.477,VALID,89,VALID,1.59734,
1999-10-12, 00:05:00,VALID,0,VALID,100,VALID,-0.101885,VALID,19.4738,VALID,90,VALID,1.77207,
1999-10-12, 00:06:00,VALID,0,VALID,100,VALID,-0.0509425,VALID,19.418,VALID,88,VALID,1.52734,
1999-10-12, 00:07:00,VALID,0,VALID,100,VALID,-0.0679233,VALID,19.3994,VALID,84,VALID,1.53248,
1999-10-12, 00:08:01,VALID,0,VALID,100,VALID,-0.0509425,VALID,19.3889,VALID,79,VALID,1.25473,
1999-10-12, 00:09:00,VALID,0,VALID,100,VALID,-0.0849042,VALID,19.373,VALID,92,VALID,1.81805,
1999-10-12, 00:10:00,VALID,0,VALID,100,VALID,-0.0339617,VALID,19.37,VALID,88,VALID,2.44571,
1999-10-12, 00:11:00,VALID,0,VALID,100,VALID,-0.0679233,VALID,19.3183,VALID,79,VALID,1.72656,
1999-10-12, 00:12:00,VALID,0,VALID,100,VALID,-0.0679233,VALID,19.2889,VALID,99,VALID,1.5612,
1999-10-12, 00:13:00,VALID,0,VALID,100,VALID,-0.0339617,VALID,19.2991,VALID,125,VALID,1.36763,
1999-10-12, 00:14:00,VALID,0,VALID,100,VALID,-0.0679233,VALID,19.2824,VALID,82,VALID,1.35016,
1999-10-12, 00:15:00,VALID,0,VALID,100,VALID,0.0509425,VALID,19.2484,VALID,290,VALID,0.585526,
1999-10-12, 00:16:00,VALID,0,VALID,100,VALID,0.0679233,VALID,19.2491,VALID,143,VALID,1.07717,
1999-10-12, 00:17:00,VALID,0,VALID,100,VALID,0.0169808,VALID,19.2325,VALID,88,VALID,0.726162,
1999-10-12, 00:18:00,VALID,0,VALID,100,VALID,0.0339617,VALID,19.2258,VALID,317,VALID,0.590372,
1999-10-12, 00:19:01,VALID,0,VALID,100,VALID,0.0169808,VALID,19.2131,VALID,144,VALID,1.41758,
1999-10-12, 00:20:00,VALID,0,VALID,100,VALID,0.0169808,VALID,19.1944,VALID,95,VALID,1.78421,
1999-10-12, 00:21:00,VALID,0,VALID,100,VALID,0.0509425,VALID,19.1683,VALID,74,VALID,1.40942,
1999-10-12, 00:22:00,VALID,0,VALID,100,VALID,0.0169808,VALID,19.1325,VALID,94,VALID,2.09687,
1999-10-12, 00:23:00,VALID,0,VALID,100,VALID,0.0509425,VALID,19.0708,VALID,92,VALID,1.89629,
1999-10-12, 00:24:00,VALID,0,VALID,100,VALID,0.0169808,VALID,19.0613,VALID,1,VALID,0.825321,
1999-10-12, 00:25:00,VALID,0,VALID,100,VALID,0.0169808,VALID,19.0514,VALID,52,VALID,1.23817,
1999-10-12, 00:26:00,VALID,0,VALID,100,VALID,0.0169808,VALID,19.0288,VALID,96,VALID,1.4752,
1999-10-12, 00:27:00,VALID,0,VALID,100,VALID,0,VALID,19.0061,VALID,98,VALID,1.84786,
1999-10-12, 00:28:00,VALID,0,VALID,100,VALID,0.0849042,VALID,19.0255,VALID,74,VALID,1.50658,
1999-10-12, 00:29:00,VALID,0,VALID,100,VALID,0.0509425,VALID,19.0034,VALID,77,VALID,1.38491,
1999-10-12, 00:30:01,VALID,0,VALID,100,VALID,-0.0679233,VALID,18.9919,VALID,104,VALID,1.06562,
1999-10-12, 00:31:00,VALID,0,VALID,100,VALID,-0.0849042,VALID,19.0113,VALID,101,VALID,1.76522,
1999-10-12, 00:32:00,VALID,0,VALID,100,VALID,-0.0679233,VALID,18.9949,VALID,90,VALID,2.02665,
1999-10-12, 00:33:00,VALID,0,VALID,100,VALID,-0.0339617,VALID,18.9755,VALID,95,VALID,1.96464,
1999-10-12, 00:34:00,VALID,0,VALID,100,VALID,-0.0849042,VALID,18.9697,VALID,75,VALID,1.29403,
1999-10-12, 00:35:00,VALID,0,VALID,100,VALID,-0.0849042,VALID,18.9463,VALID,96,VALID,1.45357,
1999-10-12, 00:36:00,VALID,0,VALID,100,VALID,-0.0849042,VALID,18.9463,VALID,93,VALID,1.78454,
1999-10-12, 00:37:00,VALID,0.2,VALID,100,VALID,-0.0339617,VALID,18.9468,VALID,88,VALID,0.888238,
1999-10-12, 00:38:00,VALID,0,VALID,100,VALID,-0.0509425,VALID,18.9468,VALID,120,VALID,0.340745,
1999-10-12, 00:39:00,VALID,0,VALID,100,VALID,-0.0339617,VALID,18.9461,VALID,91,VALID,1.62993,
1999-10-12, 00:40:01,VALID,0,VALID,100,VALID,-0.0509425,VALID,18.9468,VALID,94,VALID,1.52384,
1999-10-12, 00:41:01,VALID,0,VALID,100,VALID,-0.0679233,VALID,18.9302,VALID,118,VALID,0.0484375,
1999-10-12, 00:42:00,VALID,0,VALID,100,VALID,-0.0679233,VALID,18.9172,VALID,326,VALID,0.555859,
1999-10-12, 00:43:00,VALID,0,VALID,100,VALID,-0.0509425,VALID,18.9436,VALID,99,VALID,1.24383,
1999-10-12, 00:44:00,VALID,0,VALID,100,VALID,-0.0849042,VALID,18.9463,VALID,354,VALID,0.396176,
1999-10-12, 00:45:00,VALID,0,VALID,100,VALID,-0.0509425,VALID,18.9267,VALID,198,VALID,0.460526,
1999-10-12, 00:46:00,VALID,0,VALID,100,VALID,-0.0509425,VALID,18.9304,VALID,119,VALID,1.13061,
1999-10-12, 00:47:00,VALID,0,VALID,100,VALID,-0.101885,VALID,18.9302,VALID,114,VALID,0.517149,
1999-10-12, 00:48:00,VALID,0,VALID,100,VALID,-0.0679233,VALID,18.9436,VALID,143,VALID,0.440755,
1999-10-12, 00:49:00,VALID,0,VALID,100,VALID,-0.101885,VALID,18.9406,VALID,61,VALID,0.892634,
1999-10-12, 00:50:00,VALID,0,VALID,100,VALID,-0.0679233,VALID,18.9434,VALID,80,VALID,0.38742,
1999-10-12, 00:51:00,VALID,0,VALID,100,VALID,-0.0679233,VALID,18.9463,VALID,145,VALID,0.824424,
1999-10-12, 00:52:01,VALID,0,VALID,100,VALID,-0.0679233,VALID,18.9337,VALID,162,VALID,0.869474,
1999-10-12, 00:53:00,VALID,0,VALID,100,VALID,-0.0509425,VALID,18.9202,VALID,35,VALID,0.24399,
1999-10-12, 00:54:00,VALID,0.2,VALID,100,VALID,-0.0849042,VALID,18.9401,VALID,12,VALID,1.11106,
1999-10-12, 00:55:00,VALID,0,VALID,100,VALID,-0.0679233,VALID,18.9535,VALID,68,VALID,0.758594,
1999-10-12, 00:56:00,VALID,0,VALID,100,VALID,-0.0849042,VALID,18.9658,VALID,73,VALID,0.75,
1999-10-12, 00:57:00,VALID,0,VALID,100,VALID,-0.0509425,VALID,18.9429,VALID,348,VALID,0.847762,
1999-10-12, 00:58:00,VALID,0,VALID,100,VALID,-0.0679233,VALID,18.9535,VALID,105,VALID,1.74512,
1999-10-12, 00:59:00,VALID,0,VALID,100,VALID,-0.0849042,VALID,18.9533,VALID,93,VALID,1.76543,
1999-10-12, 01:00:00,VALID,0,VALID,100,VALID,-0.0339617,VALID,18.9496,VALID,14,VALID,1.12059,
1999-10-12, 01:01:00,VALID,0,VALID,100,VALID,-0.0849042,VALID,18.9595,VALID,134,VALID,1.0067,
1999-10-12, 01:02:00,VALID,0,VALID,100,VALID,-0.0509425,VALID,18.9593,VALID,92,VALID,1.34141,
1999-10-12, 01:03:01,VALID,0,VALID,100,VALID,-0.0339617,VALID,18.9565,VALID,268,VALID,1.06188,
1999-10-12, 01:04:00,VALID,0,VALID,100,VALID,-0.0169808,VALID,18.9369,VALID,262,VALID,1.05859,
1999-10-12, 01:05:00,VALID,0,VALID,100,VALID,-0.0339617,VALID,18.9369,VALID,225,VALID,0.693979,
1999-10-12, 01:06:00,VALID,0,VALID,100,VALID,-0.0679233,VALID,18.9471,VALID,267,VALID,0.692383,
1999-10-12, 01:07:00,VALID,0,VALID,100,VALID,-0.0509425,VALID,18.9468,VALID,221,VALID,0.536058,
1999-10-12, 01:08:00,VALID,0,VALID,100,VALID,-0.0849042,VALID,18.9595,VALID,110,VALID,1.41728,
1999-10-12, 01:09:00,VALID,0,VALID,100,VALID,-0.0849042,VALID,18.9662,VALID,357,VALID,0.917969,
1999-10-12, 01:10:00,VALID,0,VALID,100,VALID,-0.0679233,VALID,18.9568,VALID,215,VALID,0.763731,
1999-10-12, 01:11:00,VALID,0,VALID,100,VALID,-0.0339617,VALID,18.9561,VALID,153,VALID,0.440179,
1999-10-12, 01:12:00,VALID,0,VALID,100,VALID,-0.0509425,VALID,18.9565,VALID,278,VALID,0.782484,
1999-10-12, 01:13:00,VALID,0,VALID,100,VALID,-0.0679233,VALID,18.9436,VALID,42,VALID,0.588976,
1999-10-12, 01:14:00,VALID,0,VALID,100,VALID,-0.0679233,VALID,18.966,VALID,80,VALID,1.55749,
1999-10-12, 01:15:00,VALID,0,VALID,100,VALID,0.0339617,VALID,18.9613,VALID,74,VALID,1.08244,
1999-10-12, 01:16:00,VALID,0,VALID,100,VALID,0,VALID,18.9493,VALID,129,VALID,0.963341,
1999-10-12, 01:17:00,VALID,0,VALID,100,VALID,0.0169808,VALID,18.9387,VALID,105,VALID,1.21406,
1999-10-12, 01:18:00,VALID,0,VALID,100,VALID,0.0169808,VALID,18.9484,VALID,82,VALID,1.50078,
1999-10-12, 01:19:00,VALID,0,VALID,100,VALID,0.0339617,VALID,18.9683,VALID,355,VALID,0.903372,
1999-10-12, 01:20:00,VALID,0,VALID,100,VALID,0.0339617,VALID,18.917,VALID,31,VALID,1.02817,
1999-10-12, 01:21:00,VALID,0,VALID,100,VALID,0.0169808,VALID,18.9034,VALID,95,VALID,2.08943,
1999-10-12, 01:22:00,VALID,0,VALID,100,VALID,0.0169808,VALID,18.8904,VALID,97,VALID,1.95333,
1999-10-12, 01:23:00,VALID,0,VALID,100,VALID,0,VALID,18.8907,VALID,342,VALID,1.29421,
1999-10-12, 01:24:00,VALID,0,VALID,100,VALID,0.0169808,VALID,18.8613,VALID,1,VALID,1.86393,
1999-10-12, 01:25:00,VALID,0,VALID,100,VALID,0.0169808,VALID,18.8489,VALID,32,VALID,1.04286,
1999-10-12, 01:26:00,VALID,0,VALID,100,VALID,0.0169808,VALID,18.8258,VALID,106,VALID,0.788061,
1999-10-12, 01:27:00,VALID,0,VALID,100,VALID,0.0679233,VALID,18.8156,VALID,260,VALID,1.24157,
1999-10-12, 01:28:00,VALID,0,VALID,100,VALID,0,VALID,18.8223,VALID,146,VALID,1.18064,
1999-10-12, 01:29:00,VALID,0,VALID,100,VALID,0.0169808,VALID,18.8228,VALID,125,VALID,1.44611,
1999-10-12, 01:30:00,VALID,0,VALID,100,VALID,-0.0339617,VALID,18.8239,VALID,150,VALID,0.714527,
1999-10-12, 01:31:00,VALID,0,VALID,100,VALID,-0.0679233,VALID,18.8302,VALID,119,VALID,0.847656,
1999-10-12, 01:32:00,VALID,0,VALID,100,VALID,-0.0169808,VALID,18.8396,VALID,199,VALID,1.57179,
1999-10-12, 01:33:00,VALID,0,VALID,100,VALID,0,VALID,18.8304,VALID,126,VALID,2.36845,
1999-10-12, 01:34:00,VALID,0,VALID,100,VALID,-0.0169808,VALID,18.8304,VALID,46,VALID,1.01738,
1999-10-12, 01:35:00,VALID,0,VALID,100,VALID,-0.0169808,VALID,18.7944,VALID,60,VALID,0.776367,
1999-10-12, 01:36:00,VALID,0.2,VALID,100,VALID,-0.0339617,VALID,18.8073,VALID,108,VALID,1.21174,
1999-10-12, 01:37:00,VALID,0,VALID,100,VALID,-0.0169808,VALID,18.8202,VALID,95,VALID,1.82121,
1999-10-12, 01:38:00,VALID,0,VALID,100,VALID,0,VALID,18.8235,VALID,79,VALID,1.3541,
1999-10-12, 01:39:00,VALID,0,VALID,100,VALID,0,VALID,18.8142,VALID,53,VALID,1.87644,
1999-10-12, 01:40:00,VALID,0,VALID,100,VALID,0,VALID,18.7777,VALID,83,VALID,1.98417,
1999-10-12, 01:41:00,VALID,0,VALID,100,VALID,0,VALID,18.7747,VALID,97,VALID,1.20313,
1999-10-12, 01:42:00,VALID,0,VALID,100,VALID,0,VALID,18.7881,VALID,103,VALID,1.56113,
1999-10-12, 01:43:00,VALID,0,VALID,100,VALID,-0.0169808,VALID,18.808,VALID,98,VALID,1.40304,
1999-10-12, 01:44:00,VALID,0,VALID,100,VALID,-0.0339617,VALID,18.8272,VALID,106,VALID,0.845129,
1999-10-12, 01:45:00,VALID,0,VALID,100,VALID,0.0339617,VALID,18.8195,VALID,94,VALID,1.63795,
1999-10-12, 01:46:00,VALID,0,VALID,100,VALID,0.0339617,VALID,18.8163,VALID,87,VALID,0.763968,
1999-10-12, 01:47:00,VALID,0,VALID,100,VALID,0.101885,VALID,18.8128,VALID,83,VALID,1.14442,
1999-10-12, 01:48:00,VALID,0,VALID,100,VALID,0.101885,VALID,18.8283,VALID,93,VALID,1.51604,
1999-10-12, 01:49:00,VALID,0,VALID,100,VALID,0.101885,VALID,18.8484,VALID,98,VALID,1.63325,
1999-10-12, 01:50:00,VALID,0,VALID,100,VALID,0.0679233,VALID,18.8449,VALID,89,VALID,1.67949,
1999-10-12, 01:51:00,VALID,0,VALID,100,VALID,0.0849042,VALID,18.8315,VALID,34,VALID,0.352796,
1999-10-12, 01:52:00,VALID,0,VALID,100,VALID,0.101885,VALID,18.8193,VALID,143,VALID,0.353365,
1999-10-12, 01:53:00,VALID,0,VALID,100,VALID,0.101885,VALID,18.832,VALID,98,VALID,1.60332,
1999-10-12, 01:54:00,VALID,0,VALID,100,VALID,0.0849042,VALID,18.8447,VALID,83,VALID,2.5541,
1999-10-12, 01:55:00,VALID,0,VALID,100,VALID,0.101885,VALID,18.8447,VALID,91,VALID,0.865954,
1999-10-12, 01:56:01,VALID,0.2,VALID,100,VALID,0.0849042,VALID,18.8481,VALID,265,VALID,0.593544,
1999-10-12, 01:57:00,VALID,0,VALID,100,VALID,0.101885,VALID,18.8283,VALID,207,VALID,0.903166,
1999-10-12, 01:58:00,VALID,0,VALID,100,VALID,0.101885,VALID,18.8514,VALID,106,VALID,1.11198,
1999-10-12, 01:59:00,VALID,0,VALID,100,VALID,0.101885,VALID,18.8315,VALID,45,VALID,0.332127,
1999-10-12, 02:00:00,VALID,0.2,VALID,100,VALID,0.0169808,VALID,18.8329,VALID,101,VALID,1.68294,
1999-10-12, 02:01:00,VALID,0,VALID,100,VALID,0,VALID,18.8362,VALID,126,VALID,0.821875,
1999-10-12, 02:02:00,VALID,0,VALID,100,VALID,-0.0339617,VALID,18.8399,VALID,231,VALID,0.496194,
1999-10-12, 02:03:00,VALID,0,VALID,100,VALID,0,VALID,18.8526,VALID,86,VALID,0.371094,
1999-10-12, 02:04:00,VALID,0,VALID,100,VALID,0,VALID,18.853,VALID,100,VALID,0.282965,
1999-10-12, 02:05:00,VALID,0,VALID,100,VALID,0,VALID,18.8491,VALID,136,VALID,1.03746,
1999-10-12, 02:06:00,VALID,0,VALID,100,VALID,0,VALID,18.8394,VALID,117,VALID,1.15372,
1999-10-12, 02:07:00,VALID,0,VALID,100,VALID,0,VALID,18.8297,VALID,88,VALID,1.05156,
1999-10-12, 02:08:00,VALID,0,VALID,100,VALID,-0.0169808,VALID,18.8493,VALID,280,VALID,0.521537,
1999-10-12, 02:09:00,VALID,0,VALID,100,VALID,0.0169808,VALID,18.8366,VALID,137,VALID,0.548564,
1999-10-12, 02:10:00,VALID,0.2,VALID,100,VALID,0,VALID,18.8299,VALID,257,VALID,0.430859,
1999-10-12, 02:11:00,VALID,0,VALID,100,VALID,0,VALID,18.8078,VALID,330,VALID,0.760547,
1999-10-12, 02:12:00,VALID,0,VALID,100,VALID,0,VALID,18.8006,VALID,260,VALID,0.245793,
1999-10-12, 02:13:00,VALID,0.2,VALID,100,VALID,0,VALID,18.8172,VALID,100,VALID,1.19509,
1999-10-12, 02:14:00,VALID,0,VALID,100,VALID,0,VALID,18.8269,VALID,113,VALID,0.813477,
1999-10-12, 02:15:00,VALID,0,VALID,100,VALID,0,VALID,18.8265,VALID,40,VALID,0.36986,
1999-10-12, 02:16:00,VALID,0,VALID,100,VALID,0,VALID,18.8535,VALID,103,VALID,0.44778,
1999-10-12, 02:17:00,VALID,0,VALID,100,VALID,-0.0169808,VALID,18.8364,VALID,208,VALID,0,
1999-10-12, 02:18:00,VALID,0,VALID,100,VALID,0,VALID,18.8359,VALID,107,VALID,0.579102,
1999-10-12, 02:19:00,VALID,0,VALID,100,VALID,0,VALID,18.8496,VALID,139,VALID,0.634615,
1999-10-12, 02:20:00,VALID,0,VALID,100,VALID,0.0169808,VALID,18.8588,VALID,194,VALID,1.02619,
1999-10-12, 02:21:00,VALID,0,VALID,100,VALID,0,VALID,18.8593,VALID,341,VALID,1.10156,
1999-10-12, 02:22:00,VALID,0,VALID,100,VALID,0,VALID,18.8563,VALID,349,VALID,0.217803,
1999-10-12, 02:23:00,VALID,0,VALID,100,VALID,0.0169808,VALID,18.859,VALID,73,VALID,0.346205,
1999-10-12, 02:24:00,VALID,0,VALID,100,VALID,0,VALID,18.8491,VALID,152,VALID,0.168586,
1999-10-12, 02:25:00,VALID,0,VALID,100,VALID,-0.0169808,VALID,18.866,VALID,104,VALID,0,
1999-10-12, 02:26:00,VALID,0,VALID,100,VALID,-0.0339617,VALID,18.8722,VALID,164,VALID,0.000400641,
1999-10-12, 02:27:00,VALID,0,VALID,100,VALID,0,VALID,18.8789,VALID,93,VALID,1.18668,
1999-10-12, 02:28:00,VALID,0,VALID,100,VALID,0,VALID,18.8789,VALID,137,VALID,0.555889,
1999-10-12, 02:29:00,VALID,0,VALID,100,VALID,0,VALID,18.8819,VALID,141,VALID,0.400195,
1999-10-12, 02:30:00,VALID,0,VALID,100,VALID,0,VALID,18.8752,VALID,100,VALID,1.7582,
1999-10-12, 02:31:00,VALID,0,VALID,100,VALID,-0.0339617,VALID,18.8981,VALID,69,VALID,1.35115,
1999-10-12, 02:32:00,VALID,0,VALID,100,VALID,0,VALID,18.8946,VALID,93,VALID,1.74137,
1999-10-12, 02:33:00,VALID,0,VALID,100,VALID,-0.0339617,VALID,18.8814,VALID,108,VALID,1.96525,
1999-10-12, 02:34:00,VALID,0,VALID,100,VALID,0,VALID,18.9043,VALID,95,VALID,1.11759,
1999-10-12, 02:35:00,VALID,0,VALID,100,VALID,-0.0339617,VALID,18.8981,VALID,333,VALID,1.01429,
1999-10-12, 02:36:00,VALID,0,VALID,100,VALID,-0.0169808,VALID,18.8879,VALID,94,VALID,1.69097,
1999-10-12, 02:37:00,VALID,0,VALID,100,VALID,-0.0339617,VALID,18.8784,VALID,342,VALID,0.849554,
1999-10-12, 02:38:00,VALID,0,VALID,100,VALID,0,VALID,18.8847,VALID,49,VALID,0.754607,
1999-10-12, 02:39:00,VALID,0,VALID,100,VALID,-0.0169808,VALID,18.9008,VALID,101,VALID,0.855058,
1999-10-12, 02:40:00,VALID,0,VALID,100,VALID,-0.0169808,VALID,18.8974,VALID,92,VALID,1.98075,
1999-10-12, 02:41:01,VALID,0,VALID,100,VALID,0,VALID,18.9011,VALID,95,VALID,1.39904,
1999-10-12, 02:42:00,VALID,0,VALID,100,VALID,-0.0169808,VALID,18.8941,VALID,91,VALID,0.775338,
1999-10-12, 02:43:00,VALID,0,VALID,100,VALID,0,VALID,18.914,VALID,88,VALID,1.56055,
1999-10-12, 02:44:00,VALID,0,VALID,100,VALID,0,VALID,18.9045,VALID,55,VALID,1.07834,
1999-10-12, 02:45:00,VALID,0,VALID,100,VALID,-0.0169808,VALID,18.8784,VALID,96,VALID,1.93243,
1999-10-12, 02:46:00,VALID,0,VALID,100,VALID,0,VALID,18.8782,VALID,82,VALID,0.80957,
1999-10-12, 02:47:00,VALID,0,VALID,100,VALID,0,VALID,18.8426,VALID,103,VALID,1.75469,
1999-10-12, 02:48:00,VALID,0,VALID,100,VALID,0,VALID,18.8399,VALID,98,VALID,1.79487,
1999-10-12, 02:49:00,VALID,0,VALID,100,VALID,0,VALID,18.8556,VALID,73,VALID,1.74799,
1999-10-12, 02:50:00,VALID,0,VALID,100,VALID,-0.0169808,VALID,18.8297,VALID,78,VALID,2.27617,
1999-10-12, 02:51:01,VALID,0,VALID,100,VALID,-0.0169808,VALID,18.8105,VALID,96,VALID,1.80942,
1999-10-12, 02:52:00,VALID,0,VALID,100,VALID,0,VALID,18.7941,VALID,109,VALID,0.906661,
1999-10-12, 02:53:00,VALID,0,VALID,100,VALID,-0.0169808,VALID,18.7981,VALID,112,VALID,1.32489,
1999-10-12, 02:54:00,VALID,0,VALID,100,VALID,-0.0339617,VALID,18.7914,VALID,28,VALID,0.563086,
1999-10-12, 02:55:00,VALID,0,VALID,100,VALID,-0.0169808,VALID,18.7909,VALID,104,VALID,0.876002,
1999-10-12, 02:56:00,VALID,0,VALID,100,VALID,0,VALID,18.7976,VALID,97,VALID,1.47312,
1999-10-12, 02:57:00,VALID,0,VALID,100,VALID,0.0169808,VALID,18.8006,VALID,96,VALID,1.50308,
1999-10-12, 02:58:00,VALID,0,VALID,100,VALID,-0.0339617,VALID,18.8142,VALID,87,VALID,1.45099,
1999-10-12, 02:59:00,VALID,0,VALID,100,VALID,-0.0339617,VALID,18.8112,VALID,79,VALID,0.789063,
1999-10-12, 03:00:00,VALID,0.2,VALID,100,VALID,-0.0509425,VALID,18.7881,VALID,96,VALID,1.59478,
1999-10-12, 03:01:00,VALID,0,VALID,100,VALID,-0.0509425,VALID,18.759,VALID,96,VALID,1.37977,
1999-10-12, 03:02:00,VALID,0,VALID,100,VALID,-0.0509425,VALID,18.756,VALID,102,VALID,1.23758,
1999-10-12, 03:03:01,VALID,0,VALID,100,VALID,-0.0509425,VALID,18.766,VALID,93,VALID,0.898026,
1999-10-12, 03:04:00,VALID,0,VALID,100,VALID,-0.0169808,VALID,18.7888,VALID,105,VALID,0.0955529,
1999-10-12, 03:05:00,VALID,0,VALID,100,VALID,-0.0169808,VALID,18.7814,VALID,94,VALID,0,
1999-10-12, 03:06:00,VALID,0,VALID,100,VALID,-0.0169808,VALID,18.7881,VALID,108,VALID,0.000390625,
1999-10-12, 03:07:00,VALID,0,VALID,100,VALID,-0.0509425,VALID,18.7586,VALID,104,VALID,1.31497,
1999-10-12, 03:08:00,VALID,0,VALID,100,VALID,-0.0509425,VALID,18.7558,VALID,104,VALID,1.08162,
1999-10-12, 03:09:00,VALID,0,VALID,100,VALID,-0.0339617,VALID,18.7558,VALID,94,VALID,1.64474,
1999-10-12, 03:10:00,VALID,0,VALID,100,VALID,-0.0169808,VALID,18.7558,VALID,92,VALID,1.51322,
1999-10-12, 03:11:00,VALID,0,VALID,100,VALID,0,VALID,18.7327,VALID,99,VALID,1.67111,
1999-10-12, 03:12:00,VALID,0,VALID,100,VALID,0,VALID,18.7073,VALID,96,VALID,1.96962,
1999-10-12, 03:13:00,VALID,0,VALID,100,VALID,-0.0169808,VALID,18.7071,VALID,95,VALID,1.97254,
1999-10-12, 03:14:01,VALID,0,VALID,100,VALID,0,VALID,18.7302,VALID,95,VALID,2.1861,
1999-10-12, 03:15:00,VALID,0,VALID,100,VALID,-0.0169808,VALID,18.7008,VALID,94,VALID,1.99918,
1999-10-12, 03:16:00,VALID,0,VALID,100,VALID,0,VALID,18.6909,VALID,79,VALID,2.06822,
1999-10-12, 03:17:00,VALID,0,VALID,100,VALID,-0.0169808,VALID,18.6682,VALID,71,VALID,0.944111,
1999-10-12, 03:18:00,VALID,0,VALID,100,VALID,-0.0339617,VALID,18.6752,VALID,77,VALID,1.36508,
1999-10-12, 03:19:00,VALID,0,VALID,100,VALID,-0.0169808,VALID,18.6623,VALID,95,VALID,1.08906,
1999-10-12, 03:20:00,VALID,0,VALID,100,VALID,-0.0339617,VALID,18.669,VALID,92,VALID,1.1307,
1999-10-12, 03:21:00,VALID,0,VALID,100,VALID,-0.0339617,VALID,18.6717,VALID,98,VALID,0.817568,
1999-10-12, 03:22:00,VALID,0,VALID,100,VALID,0,VALID,18.6976,VALID,97,VALID,1.88418,
1999-10-12, 03:23:00,VALID,0,VALID,100,VALID,-0.0339617,VALID,18.7008,VALID,84,VALID,1.16836,
1999-10-12, 03:24:00,VALID,0,VALID,100,VALID,-0.0169808,VALID,18.7008,VALID,125,VALID,0.792268,
1999-10-12, 03:25:01,VALID,0,VALID,100,VALID,-0.0339617,VALID,18.6946,VALID,97,VALID,1.35268,
1999-10-12, 03:26:00,VALID,0,VALID,100,VALID,-0.0339617,VALID,18.6886,VALID,97,VALID,1.68848,
1999-10-12, 03:27:00,VALID,0,VALID,100,VALID,0,VALID,18.6752,VALID,88,VALID,1.51665,
1999-10-12, 03:28:00,VALID,0,VALID,100,VALID,-0.0169808,VALID,18.6787,VALID,97,VALID,0.63713,
1999-10-12, 03:29:00,VALID,0.2,VALID,100,VALID,-0.0169808,VALID,18.6886,VALID,107,VALID,0.843178,
1999-10-12, 03:30:00,VALID,0,VALID,100,VALID,0,VALID,18.6881,VALID,94,VALID,1.21699,
1999-10-12, 03:31:00,VALID,0,VALID,100,VALID,-0.0169808,VALID,18.6881,VALID,79,VALID,1.32171,
1999-10-12, 03:32:00,VALID,0,VALID,100,VALID,0,VALID,18.6782,VALID,95,VALID,1.43497,
1999-10-12, 03:33:00,VALID,0.2,VALID,100,VALID,-0.0339617,VALID,18.6687,VALID,81,VALID,1.08882,
1999-10-12, 03:34:00,VALID,0,VALID,100,VALID,0,VALID,18.675,VALID,96,VALID,1.56795,
1999-10-12, 03:35:00,VALID,0,VALID,100,VALID,0,VALID,18.6886,VALID,87,VALID,1.03728,
1999-10-12, 03:36:01,VALID,0,VALID,100,VALID,0,VALID,18.6685,VALID,65,VALID,0.623355,
1999-10-12, 03:37:00,VALID,0,VALID,100,VALID,0,VALID,18.6791,VALID,105,VALID,0.0900608,
1999-10-12, 03:38:00,VALID,0.2,VALID,100,VALID,0,VALID,18.6682,VALID,108,VALID,0.432893,
1999-10-12, 03:39:00,VALID,0,VALID,100,VALID,0,VALID,18.6653,VALID,84,VALID,0.203125,
1999-10-12, 03:40:00,VALID,0.2,VALID,100,VALID,0,VALID,18.6784,VALID,117,VALID,0.805689,
1999-10-12, 03:41:00,VALID,0,VALID,100,VALID,-0.0339617,VALID,18.6953,VALID,106,VALID,0.441992,
1999-10-12, 03:42:00,VALID,0.2,VALID,100,VALID,0,VALID,18.6812,VALID,62,VALID,0.23418,
1999-10-12, 03:43:00,VALID,0,VALID,100,VALID,0,VALID,18.6752,VALID,106,VALID,1.28762,
1999-10-12, 03:44:00,VALID,0,VALID,100,VALID,0,VALID,18.6918,VALID,96,VALID,1.29091,
1999-10-12, 03:45:00,VALID,0,VALID,100,VALID,-0.0679233,VALID,18.6858,VALID,100,VALID,1.79852,
1999-10-12, 03:46:01,VALID,0,VALID,100,VALID,-0.101885,VALID,18.6891,VALID,85,VALID,1.1873,
1999-10-12, 03:47:01,VALID,0,VALID,100,VALID,-0.0679233,VALID,18.6928,VALID,87,VALID,1.26543,
1999-10-12, 03:48:00,VALID,0,VALID,100,VALID,-0.101885,VALID,18.6835,VALID,56,VALID,0.999566,
1999-10-12, 03:49:00,VALID,0.2,VALID,100,VALID,-0.101885,VALID,18.6729,VALID,30,VALID,0.483036,
1999-10-12, 03:50:00,VALID,0,VALID,100,VALID,-0.101885,VALID,18.6741,VALID,146,VALID,0.797476,
1999-10-12, 03:51:00,VALID,0,VALID,100,VALID,-0.101885,VALID,18.6436,VALID,31,VALID,1.01768,
1999-10-12, 03:52:00,VALID,0,VALID,100,VALID,-0.101885,VALID,18.6572,VALID,230,VALID,0.444741,
1999-10-12, 03:53:00,VALID,0,VALID,100,VALID,-0.101885,VALID,18.6371,VALID,98,VALID,0.684495,
1999-10-12, 03:54:00,VALID,0.2,VALID,100,VALID,-0.118866,VALID,18.6313,VALID,91,VALID,0.806377,
1999-10-12, 03:55:00,VALID,0,VALID,100,VALID,-0.101885,VALID,18.6221,VALID,96,VALID,0.541406,
1999-10-12, 03:56:00,VALID,0,VALID,100,VALID,-0.0849042,VALID,18.6022,VALID,134,VALID,0.54603,
1999-10-12, 03:57:01,VALID,0,VALID,100,VALID,-0.101885,VALID,18.6055,VALID,93,VALID,0.690456,
1999-10-12, 03:58:01,VALID,0.2,VALID,100,VALID,-0.101885,VALID,18.602,VALID,90,VALID,1.09531,
1999-10-12, 03:59:00,VALID,0,VALID,100,VALID,-0.101885,VALID,18.6119,VALID,91,VALID,1.31172,
1999-10-12, 04:00:00,VALID,0,VALID,100,VALID,-0.0339617,VALID,18.6204,VALID,111,VALID,1.13061,
1999-10-12, 04:01:00,VALID,0,VALID,100,VALID,0,VALID,18.6401,VALID,96,VALID,1.17857,
1999-10-12, 04:02:00,VALID,0.2,VALID,100,VALID,-0.0339617,VALID,18.6269,VALID,111,VALID,1.25117,
1999-10-12, 04:03:00,VALID,0,VALID,100,VALID,0,VALID,18.6366,VALID,83,VALID,1.6396,
1999-10-12, 04:04:00,VALID,0,VALID,100,VALID,-0.0169808,VALID,18.607,VALID,358,VALID,0.504317,
1999-10-12, 04:05:00,VALID,0.2,VALID,100,VALID,0,VALID,18.5812,VALID,153,VALID,1.09451,
1999-10-12, 04:06:00,VALID,0,VALID,100,VALID,0,VALID,18.5555,VALID,97,VALID,1.43242,
1999-10-12, 04:07:00,VALID,0,VALID,100,VALID,0,VALID,18.5461,VALID,107,VALID,1.84635,
1999-10-12, 04:08:00,VALID,0.2,VALID,100,VALID,0,VALID,18.5398,VALID,50,VALID,1.55836,
1999-10-12, 04:09:01,VALID,0,VALID,100,VALID,-0.0169808,VALID,18.4913,VALID,127,VALID,1.02426,
1999-10-12, 04:10:00,VALID,0.2,VALID,100,VALID,0,VALID,18.4812,VALID,98,VALID,2.02321,
1999-10-12, 04:11:00,VALID,0,VALID,100,VALID,0,VALID,18.4946,VALID,66,VALID,1.32902,
1999-10-12, 04:12:00,VALID,0,VALID,100,VALID,-0.0169808,VALID,18.4846,VALID,28,VALID,0.991571,
1999-10-12, 04:13:00,VALID,0.2,VALID,100,VALID,0,VALID,18.4745,VALID,66,VALID,0.58724,
1999-10-12, 04:14:00,VALID,0,VALID,100,VALID,0,VALID,18.4752,VALID,81,VALID,0.611579,
1999-10-12, 04:15:00,VALID,0,VALID,100,VALID,-0.0849042,VALID,18.4729,VALID,323,VALID,0.52611,
1999-10-12, 04:16:00,VALID,0,VALID,100,VALID,-0.118866,VALID,18.4597,VALID,186,VALID,0.595753,